Home > Weather > Port Coquitlam > Past weeks

Flag for Canada Past Weather in Port Coquitlam, British Columbia, Canada — Yesterday and Last 2 Weeks

Now
66 °F

Mild.


Feels Like: 66 °F
Forecast: 53 / 75 °F
Wind: 3 mph from Southeast

Location: P. Meadows Coastal Station

Current Time: Jun 30, 2016 at 12:36:20 PM

Latest Report: Jun 30, 2016 at 12:00 PM


Visibility: N/A

Pressure: 30.22 "Hg

Humidity: 66%

Dew Point: 54 °F

Location of Port CoquitlamLocation

Past Weather in Port Coquitlam — Graph

°F

Port Coquitlam Temperature Yesterday

Maximum temperature yesterday: 75 °F (at 4:00 PM)
Minimum temperature yesterday: 56 °F (at 5:00 AM)
Average temperature yesterday: 66 °F

High & Low Weather Summary for the Past Weeks

 TemperatureHumidityPressure
High82 °F (Jun 27, 4:00 PM)98% (Jun 22, 4:00 AM)30.42 "Hg (Jun 22, 4:00 AM)
Low44 °F (Jun 16, 2:00 AM)33% (Jun 17, 3:00 PM)29.90 "Hg (Jun 15, 7:00 PM)
Average61 °F73%30.14 "Hg
* Reported Jun 15 11:00 AM — Jun 30 11:00 AM, Port Coquitlam, Weather by CustomWeather, © 2016

Note: Actual official high and low records may vary slightly from our data, if they occured in-between our weather recording intervals... More about our weather records

Advertising

Port Coquitlam Weather History for the Previous 24 Hours

Scroll right to see more
 ConditionsComfort  
Time TempWeatherWind HumidityBarometerVisibility
11:00 AM
Thu, Jun 30
64 °FMild.6 mph71%30.22 "HgN/A
10:00 AM63 °FMild.5 mph69%30.22 "HgN/A
9:00 AM62 °FCool.3 mph70%30.21 "HgN/A
8:00 AM60 °FCool.6 mph74%30.21 "HgN/A
7:00 AM59 °FCool.5 mph75%30.20 "HgN/A
6:00 AM54 °FCool.5 mph86%30.19 "HgN/A
5:00 AM56 °FCool.2 mph80%30.18 "HgN/A
4:00 AM56 °FCool.3 mph78%30.17 "HgN/A
3:00 AM57 °FCool.5 mph76%30.16 "HgN/A
2:00 AM58 °FCool.3 mph74%30.15 "HgN/A
1:00 AM59 °FCool.1 mph73%30.14 "HgN/A
12:00 AM60 °FCool.2 mph73%30.13 "HgN/A
11:00 PM
Wed, Jun 29
61 °FCool.5 mph71%30.13 "HgN/A
10:00 PM63 °FMild.2 mph68%30.12 "HgN/A
9:00 PM67 °FMild.2 mph62%30.11 "HgN/A
8:00 PM70 °FMild.5 mph60%30.10 "HgN/A
7:00 PM74 °FMild.3 mph52%30.09 "HgN/A
6:00 PM74 °FMild.5 mph54%30.10 "HgN/A
5:00 PM74 °FMild.6 mph53%30.10 "HgN/A
4:00 PM75 °FMild.5 mph54%30.11 "HgN/A
3:00 PM75 °FMild.6 mph55%30.13 "HgN/A
2:00 PM74 °FMild.6 mph57%30.14 "HgN/A
1:00 PM74 °FMild.5 mph59%30.15 "HgN/A
12:00 PM72 °FMild.5 mph62%30.16 "HgN/A
Weather by CustomWeather, © 2016

See weather overviewHow to use our weather pages